Location: NJAA Observatory
(40.6819°N, 74.8979°W)
Time: 05:23:54
(UTC-04:00)

S-56A Canister/Altair - Visible Passes

Search period start: 01 April 2015 00:00
Search period end: 11 April 2015 00:00
Orbit: 634 x 2501 km, 38.9° (Epoch: 30 March)

Date Brightness Start Highest point End Pass type
(mag) Time Alt. Az. Time Alt. Az. Time Alt. Az.
01 Apr 11.0 01:16:18 10° W 01:21:05 22° W 01:21:05 22° W visible
01 Apr 10.0 20:28:37 10° W 20:43:26 83° S 20:55:28 18° E visible
01 Apr 9.6 22:35:17 10° W 22:50:31 75° SSW 22:52:55 65° SE visible
02 Apr 10.6 00:42:48 10° WNW 00:50:21 31° W 00:50:21 31° W visible
02 Apr 10.1 19:55:46 10° WSW 20:10:10 82° S 20:24:43 11° E visible
02 Apr 9.8 22:02:08 10° W 22:17:22 77° SSW 22:22:10 51° ESE visible
03 Apr 10.3 00:09:23 10° WNW 00:19:36 41° WSW 00:19:36 41° WSW visible
03 Apr 10.1 19:23:00 10° WSW 19:36:55 81° S 19:51:58 10° E visible
03 Apr 9.9 21:29:03 10° W 21:44:10 80° SSW 21:51:24 38° ESE visible
03 Apr 10.0 23:36:03 10° WNW 23:48:51 50° SW 23:48:51 50° SW visible
04 Apr 11.4 01:45:41 10° W 01:46:17 11° W 01:46:17 11° W visible
04 Apr 10.0 20:56:04 10° W 21:10:56 81° S 21:20:39 27° ESE visible
04 Apr 9.9 23:02:47 10° WNW 23:17:25 56° SSW 23:18:06 56° SSW visible
05 Apr 11.2 01:11:38 10° W 01:15:32 17° W 01:15:32 17° W visible
05 Apr 10.0 20:23:10 10° W 20:37:40 83° S 20:49:55 18° ESE visible
05 Apr 9.8 22:29:36 10° WNW 22:44:24 60° SSW 22:47:22 53° S visible
06 Apr 10.9 00:37:50 10° W 00:44:48 23° WSW 00:44:48 23° WSW visible
06 Apr 10.1 19:50:22 10° W 20:04:24 83° S 20:19:12 11° E visible
06 Apr 10.0 21:56:31 10° WNW 22:11:18 64° SSW 22:16:38 44° SSE visible
07 Apr 10.7 00:04:12 10° W 00:14:05 30° WSW 00:14:05 30° WSW visible
07 Apr 10.0 21:23:31 10° W 21:38:10 68° SSW 21:45:57 34° SE visible
07 Apr 10.5 23:30:44 10° W 23:43:23 35° SW 23:43:23 35° SW visible
08 Apr 10.1 20:50:36 10° W 21:04:59 71° SSW 21:15:16 25° SE visible
08 Apr 10.3 22:57:24 10° W 23:10:50 39° SW 23:12:44 38° SSW visible
09 Apr 10.1 20:17:48 10° W 20:31:47 74° SSW 20:44:39 16° ESE visible
09 Apr 10.3 22:24:12 10° WNW 22:37:53 43° SW 22:42:06 36° S visible
10 Apr 11.3 00:35:18 10° W 00:39:33 14° WSW 00:39:33 14° WSW visible
10 Apr 10.1 19:45:04 10° W 19:58:35 76° SSW 20:13:41 10° ESE visible
10 Apr 10.4 21:51:06 10° WNW 22:04:53 47° SW 22:11:31 31° SSE visible
